Location: Treviso
(45.6669°N, 12.2430°E)
Time: 07:24:43
(UTC+02:00)

ISS - Pass Details

Date: 22 May 2017
Orbit: 401 x 407 km, 51.6° (Epoch: 23 September)

Event Time Altitude Azimuth Distance (km) Brightness Sun altitude
Exits shadow 02:14:33 - 295° (WNW) 1,574 -0.8 -22.2°
Reaches altitude 10° 02:14:47 10° 297° (WNW) 1,491 -0.9 -22.2°
Drops below altitude 10° 02:20:39 10° 60° (ENE) 1,485 -0.3 -21.9°
Enters shadow 03:29:48 -45° 283° (WNW) 9,539 3.1 -16.5°
Maximum altitude 03:54:50 43° 18° (NNE) 592 -2.5 -13.8°
